Total_Precipitation_Accumulation
0.08 0.15 0.37 0.61 1.07 1.82 1.67 1.09 0.59 0.36 0.36 0.48 0.53 0.51 0.57 0.62 0.88 1.45 1.26 0.96 0.69 0.78 0.90 1.05 1.22 1.20 1.20 1.25 1.22 1.24 1.30 1.27 1.23 1.23 1.30 1.36 1.44 1.47 1.58 1.59 1.43 1.35 1.31 1.18 1.09 0.95 0.81 0.75 0.68
0.12 0.25 0.47 0.68 1.40 1.86 1.40 1.20 0.52 0.32 0.26 0.38 0.45 0.48 0.57 0.53 0.41 0.64 1.04 0.95 0.70 0.74 0.78 0.75 0.95 1.05 1.05 1.16 1.20 1.32 1.33 1.25 1.17 1.16 1.17 1.24 1.44 1.48 1.44 1.32 1.22 1.23 1.16 1.06 0.92 0.78 0.67 0.61 0.55
0.15 0.31 0.47 0.68 1.01 1.12 0.79 0.62 0.33 0.31 0.29 0.36 0.43 0.44 0.49 0.65 0.52 0.70 0.85 0.75 0.77 0.80 0.87 0.92 1.01 1.04 1.08 1.15 1.24 1.27 1.17 1.12 1.15 1.15 1.14 1.21 1.27 1.24 1.18 1.14 1.10 1.07 0.99 0.90 0.76 0.67 0.61 0.57 0.54
0.15 0.27 0.37 0.49 0.50 0.54 0.46 0.34 0.24 0.25 0.26 0.36 0.39 0.41 0.56 0.62 0.51 0.70 0.81 0.89 0.88 0.91 0.95 0.97 0.99 0.94 0.94 0.96 1.05 1.17 1.17 1.10 1.12 1.09 1.09 1.08 1.10 1.13 1.03 0.95 0.93 0.92 0.86 0.77 0.71 0.62 0.59 0.59 0.61
0.15 0.29 0.40 0.39 0.33 0.41 0.39 0.30 0.25 0.23 0.23 0.39 0.49 0.64 0.82 0.75 0.59 0.81 0.93 0.98 0.91 0.89 0.96 0.89 0.94 0.94 0.88 0.84 0.90 1.01 1.10 1.11 1.09 1.03 1.03 1.03 1.01 1.00 0.92 0.84 0.80 0.80 0.72 0.65 0.65 0.60 0.61 0.64 0.65
0.15 0.28 0.28 0.25 0.26 0.32 0.30 0.22 0.21 0.27 0.31 0.41 0.59 0.83 1.10 1.05 0.81 0.87 0.97 0.92 0.94 0.96 0.97 0.95 1.03 1.00 0.94 0.86 0.86 0.84 0.93 1.03 1.01 0.96 0.95 0.91 0.83 0.85 0.87 0.87 0.76 0.71 0.63 0.59 0.59 0.58 0.61 0.66 0.71
0.13 0.19 0.17 0.15 0.19 0.26 0.25 0.19 0.19 0.21 0.29 0.45 0.57 0.88 1.27 1.48 1.13 0.97 1.05 1.14 1.22 1.13 1.00 0.97 1.05 1.05 0.97 1.01 0.93 0.84 0.82 0.86 0.85 0.83 0.84 0.81 0.76 0.76 0.80 0.89 0.84 0.69 0.65 0.64 0.65 0.65 0.65 0.68 0.77
0.06 0.09 0.14 0.13 0.11 0.20 0.21 0.19 0.18 0.21 0.25 0.37 0.52 0.77 1.26 1.30 1.04 1.07 1.37 1.48 1.65 1.53 1.30 1.16 1.10 1.01 0.95 0.94 0.93 0.89 0.85 0.79 0.78 0.77 0.74 0.80 0.80 0.77 0.84 0.89 0.90 0.82 0.80 0.87 0.84 0.81 0.79 0.75 0.75
0.05 0.06 0.10 0.10 0.08 0.11 0.13 0.15 0.17 0.17 0.19 0.38 0.55 0.71 1.00 0.99 0.95 1.03 1.63 1.81 1.86 1.76 1.62 1.37 1.14 1.05 1.02 0.89 0.85 0.97 0.96 0.92 0.91 0.89 0.86 0.99 1.14 0.98 1.04 0.98 1.12 1.13 1.08 1.17 1.20 1.21 1.15 1.03 0.90
0.04 0.04 0.05 0.04 0.04 0.06 0.10 0.15 0.15 0.17 0.32 0.69 0.96 0.97 0.97 0.97 1.11 1.31 1.74 1.76 1.91 1.97 1.72 1.56 1.34 1.11 0.97 0.86 1.01 1.28 1.08 1.09 1.17 1.23 1.22 1.46 1.69 1.66 1.09 1.17 1.47 1.60 1.66 1.71 1.76 1.81 1.57 1.32 1.24
0.02 0.03 0.02 0.03 0.02 0.04 0.07 0.13 0.15 0.19 0.55 0.99 1.33 1.17 1.06 1.18 1.31 1.59 2.00 2.22 2.18 2.27 2.01 1.83 1.55 1.27 1.09 1.16 1.06 1.22 1.40 1.51 1.50 1.47 1.50 1.70 1.56 1.33 1.20 1.36 1.67 1.93 2.01 2.00 2.22 2.24 1.90 1.95 2.21
0.02 0.02 0.02 0.02 0.02 0.03 0.06 0.10 0.15 0.25 0.50 0.70 0.89 1.07 1.20 1.40 1.68 1.94 2.09 2.33 2.34 2.39 2.27 2.24 1.83 1.66 1.70 1.48 1.22 1.14 1.17 1.31 1.50 1.74 1.68 1.79 2.01 1.91 1.83 1.95 2.01 2.14 2.37 2.74 2.62 2.77 2.61 2.57 2.48
0.01 0.02 0.02 0.01 0.02 0.04 0.06 0.08 0.18 0.33 0.44 0.54 0.87 1.21 1.49 1.56 1.88 2.20 2.31 2.59 2.45 2.41 2.43 2.43 2.21 2.04 2.11 1.90 1.66 1.40 1.51 1.53 1.61 1.74 1.87 1.83 2.13 2.34 2.32 2.30 2.28 2.15 2.23 2.47 2.66 2.68 3.03 3.16 2.77
0.01 0.01 0.01 0.02 0.03 0.05 0.09 0.14 0.24 0.38 0.54 0.73 0.96 1.23 1.54 1.81 2.04 2.17 2.57 2.76 2.78 2.68 2.74 2.54 2.45 2.44 2.43 2.36 2.28 2.15 1.89 1.97 1.89 1.83 1.84 1.91 2.18 2.50 2.63 2.50 2.48 2.32 2.28 2.45 2.64 2.83 3.31 3.26 3.07
0.02 0.02 0.04 0.05 0.06 0.08 0.12 0.30 0.45 0.56 0.63 0.79 1.00 1.14 1.48 1.99 2.27 2.30 2.60 2.73 2.67 3.03 3.07 3.07 3.02 3.15 3.09 2.92 2.81 2.58 2.37 2.22 2.19 2.26 2.26 2.16 2.24 2.54 2.57 2.40 2.32 2.39 2.51 2.70 2.72 2.93 3.15 2.86 2.87
0.03 0.09 0.12 0.12 0.10 0.11 0.19 0.51 0.61 0.68 0.68 0.87 1.07 1.24 1.54 1.84 2.20 2.35 2.63 2.81 2.87 3.23 3.40 3.59 3.57 3.59 3.43 3.43 3.37 3.13 2.89 2.72 2.54 2.48 2.51 2.36 2.34 2.43 2.65 2.44 2.30 2.62 2.66 2.79 3.08 3.23 3.20 3.13 3.13
0.06 0.07 0.09 0.12 0.10 0.09 0.16 0.43 0.55 0.70 0.92 1.08 1.26 1.43 1.47 1.75 2.08 2.44 2.73 3.07 3.33 3.65 3.92 4.12 4.13 3.99 3.74 3.78 3.74 3.60 3.46 3.14 2.79 2.61 2.52 2.37 2.34 2.47 2.77 2.73 2.83 2.89 2.99 3.03 2.89 3.32 3.36 3.26 3.27
0.06 0.07 0.08 0.12 0.11 0.11 0.22 0.47 0.59 0.76 1.00 1.05 1.31 1.49 1.57 1.66 2.11 2.56 2.77 3.19 3.66 4.14 4.55 4.40 4.31 4.52 4.41 4.25 4.11 3.84 3.39 2.96 2.81 2.78 2.59 2.43 2.47 2.57 2.99 2.85 2.84 2.93 3.09 3.15 3.13 3.29 3.32 3.07 3.05
0.05 0.07 0.10 0.13 0.12 0.15 0.28 0.55 0.80 0.90 1.17 1.13 1.16 1.32 1.48 1.61 1.91 2.34 2.65 3.21 3.81 4.20 4.58 4.74 4.76 4.68 4.51 4.14 3.82 3.58 3.34 3.13 2.87 2.69 2.61 2.50 2.39 2.56 2.98 2.85 3.09 3.05 3.05 3.07 3.13 3.26 3.18 2.86 3.05
0.06 0.08 0.10 0.15 0.16 0.21 0.39 0.62 0.91 0.92 0.99 1.04 0.96 1.00 1.20 1.56 1.81 2.34 2.65 2.87 3.33 3.84 4.30 4.60 4.75 4.65 4.27 3.90 3.70 3.58 3.51 3.11 2.81 2.77 2.87 2.72 2.72 2.75 2.79 2.97 2.95 3.02 3.12 3.06 3.05 3.18 3.02 2.66 2.89
0.08 0.09 0.10 0.11 0.14 0.28 0.44 0.85 1.10 0.99 0.93 0.95 0.94 0.99 1.17 1.64 2.08 2.34 2.54 2.70 2.99 3.38 3.69 3.81 3.97 3.94 3.79 3.82 3.83 3.76 3.73 3.29 3.18 3.17 3.15 2.95 2.95 2.96 2.97 2.95 2.88 2.88 2.69 2.74 2.81 2.85 2.87 2.80 2.73
0.10 0.08 0.07 0.08 0.16 0.37 0.46 1.01 1.39 1.19 1.04 1.08 1.13 1.08 1.35 1.68 1.72 1.87 2.19 2.51 2.69 2.92 3.27 3.50 3.56 3.52 3.43 3.54 3.59 3.47 3.27 3.11 3.23 3.52 3.47 3.19 2.97 2.81 2.62 2.56 2.71 2.73 2.53 2.54 2.23 2.36 2.57 2.59 2.45
0.09 0.08 0.08 0.11 0.17 0.35 0.46 0.78 1.30 1.28 1.26 1.15 1.17 1.28 1.49 1.52 1.46 1.57 1.78 2.10 2.22 2.53 2.82 3.07 3.33 3.43 3.38 3.43 3.38 3.40 3.26 3.26 3.30 3.28 3.29 3.09 2.88 2.54 2.22 2.24 2.41 2.40 2.33 2.22 2.10 2.27 2.17 2.13 2.18
0.07 0.08 0.14 0.21 0.33 0.68 0.56 0.60 1.06 1.21 1.04 0.98 1.08 1.11 1.30 1.31 1.31 1.50 1.66 1.89 2.02 2.17 2.29 2.43 2.65 2.93 3.10 3.16 3.14 3.17 3.13 3.11 3.04 2.94 2.82 2.63 2.47 2.21 1.95 1.87 2.03 2.15 2.17 2.11 2.08 2.17 2.07 2.09 2.23
0.07 0.12 0.45 0.80 1.02 1.07 0.59 0.63 1.08 0.95 0.75 0.76 0.95 1.00 1.06 1.04 1.02 1.24 1.37 1.49 1.63 1.75 1.86 1.99 2.18 2.52 2.69 2.69 2.68 2.80 2.86 2.87 2.79 2.75 2.60 2.39 2.16 1.88 1.83 1.85 1.95 2.01 2.06 1.92 2.00 2.06 2.10 2.22 2.28
0.09 0.12 0.39 0.69 0.81 0.87 0.71 1.05 1.48 0.99 0.77 0.81 0.86 0.86 0.85 0.82 0.79 0.95 1.17 1.38 1.44 1.47 1.59 1.74 1.97 2.20 2.31 2.26 2.39 2.61 2.68 2.78 2.66 2.69 2.45 2.20 2.00 1.89 1.95 1.93 1.81 1.76 1.87 1.77 2.03 1.97 2.01 2.19 2.23
0.10 0.10 0.16 0.32 0.41 0.66 0.91 1.18 1.22 0.76 0.67 0.75 0.77 0.79 0.90 0.85 0.78 0.85 0.94 1.11 1.16 1.21 1.33 1.48 1.84 2.12 2.24 2.27 2.41 2.51 2.58 2.56 2.47 2.39 2.22 2.02 2.02 1.96 2.07 2.02 1.92 1.82 1.89 2.01 2.28 2.22 2.19 2.39 2.34
0.11 0.12 0.18 0.25 0.43 0.67 0.89 1.19 1.31 0.93 0.75 0.55 0.50 0.55 0.56 0.56 0.57 0.66 0.71 0.81 0.93 1.13 1.39 1.54 1.68 1.98 2.10 2.12 2.21 2.24 2.41 2.36 2.25 2.18 2.01 1.86 1.77 1.81 1.97 2.11 2.04 1.97 2.00 2.16 2.34 2.35 2.50 2.64 2.59
0.13 0.13 0.15 0.19 0.26 0.46 0.90 1.14 0.90 0.74 0.61 0.56 0.53 0.58 0.50 0.45 0.47 0.54 0.69 0.81 0.98 1.14 1.31 1.38 1.43 1.59 1.73 1.83 2.02 2.01 2.00 2.11 2.17 2.04 1.82 1.74 1.73 1.76 1.83 2.02 2.10 2.07 2.10 2.19 2.24 2.23 2.52 2.64 2.62
0.15 0.13 0.14 0.18 0.19 0.29 0.52 0.75 0.58 0.64 0.63 0.54 0.56 0.63 0.63 0.59 0.54 0.60 0.79 0.95 1.05 1.19 1.22 1.22 1.26 1.40 1.55 1.73 1.92 2.00 2.01 2.05 2.06 1.94 1.76 1.70 1.73 1.80 1.87 1.99 2.01 1.93 1.93 2.11 2.15 2.22 2.48 2.61 2.51